WS Maaseik 1 Meer informatie WS Maaseik 1


WS Maaseik 2 Meer informatie WS Maaseik 2


Regen radar Meer informatie rain snow radar


Bezoek onze andere website:

Vorige versie
weerstation Maaseik


Bezoek ook eens deze sites:

Weerstation Geleen



We konden geen weer-waarchuwingen ophalen. Ga rechtstreeks naar de Meteoalarm site : www.meteoalarm.eu en controleer daar .

15 daagse weersverwachting Toulouse (FR)

  • Overzicht
  • Per uur
  • 15 dagen
  • Extra
  • Vergelijk
  • Kaarten
  • Dagkaart
  • Meer »
  • Info
  • Statistieken
  • Directe link
    Temp 6h Neerslag Wind  
 06:59     20:59    Daglengte: 14:00 Vandaag
20:00
24°
 
4
 07:00     20:57    Daglengte: 13:57 Morgen
02:00
20°
 
1
08:00
19°
 
2
14:00
26°
 
3
20:00
27°
 
3
 07:01     20:56    Daglengte: 13:55 Dinsdag 16 Aug
02:00
21°
 
1
08:00
20°
 
2
14:00
31°
 
2
20:00
23°
5.8 mm
4
warningclass
 07:03     20:54    Daglengte: 13:51 Woensdag 17 Aug
02:00
20°
22.3 mm
3
08:00
18°
5.9 mm
2
Locatie info
Region: Occitanie
Latitude: 43.6057°N
Longitude: 1.4487°E
150 masl
Postcode: 31000
Temp/Neerslag /Baro Onweer/Dauwpunt
    Temp Baro 1h Neerslag Dauwpunt Wind UV Bewolking  
 06:59     20:59    Daglengte: 14:00 Vandaag
15:00
26°
1010.5 hPa
37%
19.5°
4
Windvlaag: -1.7 m/s
10%
16:00
26°
1010.6 hPa
82%
18.5°
5
Windvlaag: -3.5 m/s
57%
17:00
25°
1010.3 hPa
82%
18.0°
4
Windvlaag: -4 m/s
29%
18:00
25°
1010.2 hPa
70%
18.8°
4
Windvlaag: -6.7 m/s
46%
19:00
25°
1010.0 hPa
33%
18.7°
4
Windvlaag: -6.9 m/s
50%
20:00
24°
1010.2 hPa
22%
18.4°
4
Windvlaag: -4.1 m/s
44%
21:00
23°
1010.6 hPa
14%
17.9°
3
Windvlaag: -3.7 m/s
22%
22:00
22°
1011.2 hPa
14%
17.9°
3
Windvlaag: -2.6 m/s
32%
23:00
21°
1011.3 hPa
14%
17.7°
2
Windvlaag: -1.4 m/s
26%
 07:00     20:57    Daglengte: 13:57 Morgen
00:00
21°
1011.3 hPa
14%
18.0°
2
Windvlaag: -0.2 m/s
5%
01:00
20°
1011.3 hPa
14%
18.3°
1
Windvlaag: 0.5 m/s
8%
02:00
20°
1011.3 hPa
14%
18.5°
1
Windvlaag: 1.2 m/s
17%
03:00
19°
1011.1 hPa
14%
18.5°
1
Windvlaag: 0.6 m/s
12%
04:00
19°
1010.9 hPa
14%
17.9°
1
Windvlaag: 0.2 m/s
13%
05:00
19°
1010.9 hPa
14%
17.0°
2
Windvlaag: -1.7 m/s
20%
06:00
19°
1010.6 hPa
14%
17.0°
2
Windvlaag: -2.4 m/s
51%
07:00
18°
1010.8 hPa
14%
17.0°
2
Windvlaag: -1.6 m/s
18%
08:00
19°
1011.0 hPa
14%
16.7°
2
Windvlaag: -1.4 m/s
24%
09:00
19°
1011.1 hPa
14%
16.4°
2
Windvlaag: -1 m/s
33%
10:00
21°
1011.2 hPa
14%
16.1°
2
Windvlaag: -1.2 m/s
26%
11:00
22°
1011.2 hPa
14%
15.0°
2
Windvlaag: -0.8 m/s
45%
12:00
23°
1011.1 hPa
14%
14.6°
3
Windvlaag: 0.3 m/s
13%
13:00
24°
1010.6 hPa
14%
14.6°
3
Windvlaag: 3.7 m/s
32%
14:00
26°
1010.2 hPa
14%
14.8°
3
Windvlaag: 5.4 m/s
3%
15:00
27°
1009.5 hPa
14%
15.2°
3
Windvlaag: 4.2 m/s
16%
16:00
28°
1009.0 hPa
14%
15.1°
4
Windvlaag: -2.1 m/s
6%
17:00
28°
Voelt als: 28.3°
1008.6 hPa
14%
14.7°
3
Windvlaag: -1.9 m/s
4%
18:00
28°
1008.3 hPa
14%
15.2°
3
Windvlaag: 1.7 m/s
13%
19:00
28°
1008.2 hPa
14%
15.5°
3
Windvlaag: -4.4 m/s
10%
20:00
27°
1008.3 hPa
14%
16.0°
3
Windvlaag: -4.2 m/s
7%
21:00
26°
1008.5 hPa
14%
16.3°
3
Windvlaag: -2.2 m/s
2%
22:00
24°
1009.3 hPa
14%
16.3°
2
Windvlaag: -1.9 m/s
1%
23:00
23°
1009.7 hPa
14%
16.5°
2
Windvlaag: -2.6 m/s
0%
 07:01     20:56    Daglengte: 13:55 Dinsdag 16 Aug
00:00
22°
1009.7 hPa
14%
17.0°
2
Windvlaag: -2.6 m/s
0%
01:00
21°
1009.3 hPa
14%
16.7°
2
Windvlaag: -1.8 m/s
2%
02:00
21°
1009.0 hPa
14%
16.5°
1
Windvlaag: -0.9 m/s
3%
03:00
20°
1008.8 hPa
14%
16.9°
1
Windvlaag: -0.4 m/s
3%
04:00
19°
1008.3 hPa
14%
17.3°
1
Windvlaag: -0.9 m/s
6%
05:00
19°
1007.6 hPa
14%
16.6°
1
Windvlaag: -0.8 m/s
7%
06:00
19°
1007.0 hPa
14%
16.4°
2
Windvlaag: -0 m/s
15%
07:00
19°
1006.6 hPa
14%
16.5°
2
Windvlaag: 0.2 m/s
8%
08:00
20°
1006.7 hPa
14%
16.8°
2
Windvlaag: 0.6 m/s
7%
09:00
21°
1006.6 hPa
14%
16.5°
2
Windvlaag: 1.6 m/s
20%
10:00
24°
1006.3 hPa
14%
15.8°
4
Windvlaag: 5.9 m/s
13%
11:00
27°
1005.9 hPa
25%
13.9°
3
Windvlaag: 7.1 m/s
7%
12:00
29°
Voelt als: 28.7°
1005.8 hPa
22%
12.8°
4
Windvlaag: 7.2 m/s
6%
13:00
31°
Voelt als: 29.8°
1005.6 hPa
21%
11.8°
3
Windvlaag: 6.8 m/s
6%
14:00
31°
Voelt als: 30.2°
1005.4 hPa
22%
12.1°
2
Windvlaag: 6.1 m/s
67%
15:00
31°
Voelt als: 30.0°
1005.4 hPa 0.4 mm
89%
13.9°
3
Windvlaag: 4.7 m/s
85% warningclass
16:00
29°
1005.8 hPa 0.8 mm
97%
16.6°
4
Windvlaag: 4.5 m/s
76% warningclass
17:00
29°
1006.1 hPa 0.7 mm
99%
18.7°
4
Windvlaag: 2 m/s
79% warningclass
18:00
26°
1007.1 hPa 0.9 mm
100%
18.2°
6
Windvlaag: -6.8 m/s
99%
19:00
24°
1007.6 hPa 0.9 mm
100%
16.5°
5
Windvlaag: -7.3 m/s
89% warningclass
20:00
23°
1008.1 hPa 2.1 mm
41%
16.2°
4
Windvlaag: -5.8 m/s
37% warningclass
21:00
22°
1008.8 hPa 1.4 mm
85%
17.1°
3
Windvlaag: -3.7 m/s
84% warningclass
22:00
21°
1009.6 hPa
32%
17.6°
3
Windvlaag: -1.7 m/s
75%
23:00
20°
1010.6 hPa 2.1 mm
23%
18.3°
3
Windvlaag: 2.5 m/s
92% warningclass
 07:03     20:54    Daglengte: 13:51 Woensdag 17 Aug
00:00
20°
1010.7 hPa 6.0 mm
25%
18.3°
2
Windvlaag: 2.5 m/s
98% warningclass
01:00
20°
1010.7 hPa 6.3 mm
30%
17.8°
3
Windvlaag: 2.8 m/s
77% warningclass
02:00
20°
1010.6 hPa 6.4 mm
24%
15.7°
3
Windvlaag: 2.7 m/s
80%
03:00
19°
1010.1 hPa 5.9 mm
21%
14.4°
3
Windvlaag: 2.8 m/s
65%
04:00
19°
1010.1 hPa
22%
15.3°
2
Windvlaag: -1.4 m/s
78%
05:00
18°
1009.9 hPa
32%
15.6°
2
Windvlaag: -1.5 m/s
81%
06:00
18°
1009.7 hPa
82%
15.5°
2
Windvlaag: 4.3 m/s
71%
07:00
18°
1009.6 hPa
91%
15.1°
1
Windvlaag: 5 m/s
63%
08:00
18°
1010.1 hPa
84%
14.1°
2
Windvlaag: 5.2 m/s
30%
09:00
19°
1009.9 hPa
33%
13.3°
2
Windvlaag: 4.6 m/s
28%
10:00
20°
1009.9 hPa
24%
13.3°
2
Windvlaag: 5.2 m/s
70%
11:00
22°
1009.9 hPa
22%
12.9°
1
Windvlaag: 4.6 m/s
70%
12:00
23°
1009.9 hPa
22%
12.0°
2
Windvlaag: 4.4 m/s
66%
13:00
24°
1010.1 hPa
95%
10.7°
3
Windvlaag: 5.2 m/s
68%
14:00
25°
1010.0 hPa 5.7 mm
99%
10.6°
4
Windvlaag: 6.7 m/s
43%
Temp/Neerslag /Baro Onweer/Dauwpunt
    Temp Baro Neerslag Dauwpunt Wind Bewolking  
 06:59     20:59    Daglengte: 14:00 Vandaag
17:00
25°
1010.3 hPa   18.0°
4
29%
20:00
24°
1010.2 hPa   18.4°
4
44%
23:00
21°
1011.3 hPa   17.7°
2
26%
 07:00     20:57    Daglengte: 13:57 Morgen
02:00
20°
1011.3 hPa   18.5°
1
17%
05:00
19°
1010.9 hPa   17.0°
2
20%
08:00
19°
1011.0 hPa   16.7°
2
24%
11:00
22°
1011.2 hPa   15.0°
2
45%
14:00
26°
1010.2 hPa   14.8°
3
3%
17:00
28°
Voelt als: 28.3°
1008.6 hPa   14.7°
3
4%
20:00
27°
1008.3 hPa   16.0°
3
7%
23:00
23°
1009.7 hPa   16.5°
2
0%
 07:01     20:56    Daglengte: 13:55 Dinsdag 16 Aug
02:00
21°
1009.0 hPa   16.5°
1
3%
05:00
19°
1007.6 hPa   16.6°
1
7%
08:00
20°
1006.7 hPa   16.8°
2
7%
11:00
27°
1005.9 hPa   13.9°
3
7%
14:00
31°
Voelt als: 30.2°
1005.4 hPa   12.1°
2
67%
17:00
29°
1006.1 hPa 1.9 mm 18.7°
4
79% warningclass
20:00
23°
1008.1 hPa 3.9 mm 16.2°
4
37% warningclass
23:00
20°
1010.6 hPa 3.6 mm 18.3°
3
92% warningclass
 07:03     20:54    Daglengte: 13:51 Woensdag 17 Aug
02:00
20°
1010.6 hPa 18.7 mm 15.7°
3
80%
05:00
18°
1009.9 hPa 5.9 mm 15.6°
2
81%
08:00
18°
1010.1 hPa   14.1°
2
30%
11:00
22°
1009.9 hPa   12.9°
1
70%
14:00
25°
1010.0 hPa 17.0 mm 10.6°
4
43%
17:00
27°
1011.1 hPa 9.4 mm 12.2°
3
0%
20:00
21°
1012.8 hPa 10.0 mm 14.8°
5
1%
23:00
20°
1014.2 hPa 10.2 mm 15.1°
5
1%
 07:04     20:53    Daglengte: 13:49 Donderdag 18 Aug
02:00
17°
1015.6 hPa 10.2 mm 14.9°
4
1%
05:00
16°
1014.8 hPa 10.2 mm 14.0°
3
1%
08:00
16°
1015.3 hPa 10.2 mm 13.6°
3
1%
11:00
21°
1015.2 hPa 10.3 mm 13.5°
5
1%
14:00
22°
1015.0 hPa 11.4 mm 13.2°
6
1%
17:00
21°
1015.5 hPa 13.2 mm 14.2°
7
1%
20:00
19°
1015.5 hPa 14.5 mm 16.2°
5
1%
23:00
17°
1017.3 hPa 15.9 mm 16.0°
5
1%
 07:05     20:51    Daglengte: 13:46 Vrijdag 19 Aug
02:00
16°
1019.1 hPa 17.7 mm 15.0°
6
1%
05:00
16°
1018.9 hPa 18.0 mm 14.3°
5
1%
08:00
17°
1019.9 hPa 18.4 mm 14.5°
5
0%
11:00
21°
1020.8 hPa 18.6 mm 16.0°
6
0%
14:00
26°
1019.7 hPa 18.8 mm 13.6°
6
1%
17:00
27°
Voelt als: 27.0°
1019.0 hPa 18.8 mm 12.0°
7
0%
20:00
24°
1019.8 hPa 18.8 mm 13.6°
4
1%
23:00
22°
1021.5 hPa 18.8 mm 13.9°
6
0%
 07:06     20:49    Daglengte: 13:43 Zaterdag 20 Aug
02:00
20°
1022.4 hPa 18.8 mm 10.8°
5
1%
05:00
17°
1022.8 hPa 18.8 mm 11.8°
4
0%
08:00
16°
1023.3 hPa 18.8 mm 12.4°
4
0%
11:00
23°
1023.3 hPa 18.8 mm 14.8°
4
0%
14:00
28°
Voelt als: 27.7°
1021.9 hPa 18.8 mm 13.5°
4
0%
17:00
30°
Voelt als: 29.3°
1019.9 hPa 18.8 mm 12.1°
3
0%
20:00
28°
Voelt als: 27.6°
1019.5 hPa 18.8 mm 11.6°
3
0%
23:00
23°
1020.8 hPa 18.8 mm 13.2°
4
0%
 07:07     20:48    Daglengte: 13:41 Zondag 21 Aug
02:00
20°
1021.0 hPa 18.8 mm 12.9°
2
0%
05:00
19°
1021.0 hPa 18.8 mm 13.7°
2
0%
08:00
18°
1021.3 hPa 18.8 mm 13.8°
2
0%
11:00
25°
1020.7 hPa 18.8 mm 11.9°
2
0%
14:00
30°
Voelt als: 28.6°
1018.6 hPa 37.5 mm 8.5°
3
0%
20:00
29°
Voelt als: 27.7°
1015.2 hPa 37.5 mm 4.7°
2
0%
 07:08     20:46    Daglengte: 13:38 Maandag 22 Aug
02:00
20°
1015.7 hPa 37.5 mm 7.0°
2
0%
08:00
18°
1015.6 hPa 37.5 mm 8.5°
2
0%
14:00
31°
Voelt als: 29.1°
1013.7 hPa 37.5 mm 6.7°
5
0%
20:00
29°
Voelt als: 27.6°
1011.3 hPa 37.5 mm 4.5°
4
1%
 07:09     20:45    Daglengte: 13:36 Dinsdag 23 Aug
02:00
20°
1013.0 hPa 37.5 mm 10.3°
5
0%
08:00
17°
1014.1 hPa 37.5 mm 13.9°
3
1%
14:00
29°
Voelt als: 27.8°
1012.3 hPa 37.5 mm 8.2°
4
1%
20:00
28°
Voelt als: 26.7°
1011.0 hPa 37.5 mm 4.1°
3
1%
 07:10     20:43    Daglengte: 13:33 Woensdag 24 Aug
02:00
20°
1013.5 hPa 37.5 mm 4.6°
3
0%
08:00
19°
1016.8 hPa 0.1 mm 13.6°
1
35%
14:00
32°
Voelt als: 30.8°
1015.3 hPa 0.1 mm 12.6°
1
25%
20:00
30°
Voelt als: 29.3°
1014.6 hPa 0.4 mm 12.9°
1
19%
 07:12     20:41    Daglengte: 13:29 Donderdag 25 Aug
02:00
21°
1017.0 hPa 0.8 mm 13.8°
1
29%
08:00
19°
1017.4 hPa 0.3 mm 14.4°
1
25%
14:00
32°
Voelt als: 31.0°
1016.1 hPa 0.1 mm 13.1°
1
32%
20:00
31°
Voelt als: 29.6°
1015.2 hPa   12.1°
1
27%
 07:13     20:40    Daglengte: 13:27 Vrijdag 26 Aug
02:00
21°
1017.8 hPa 0.2 mm 13.9°
2
31%
08:00
19°
1018.2 hPa   14.7°
1
33%
14:00
32°
Voelt als: 31.3°
1016.8 hPa   13.4°
1
30%
20:00
30°
Voelt als: 29.5°
1015.8 hPa   12.8°
1
32%
 07:14     20:38    Daglengte: 13:24 Zaterdag 27 Aug
02:00
21°
1018.4 hPa 0.6 mm 14.9°
3
33%
08:00
19°
1018.6 hPa 0.2 mm 15.6°
2
41%
14:00
31°
Voelt als: 30.2°
1016.9 hPa 0.1 mm 14.3°
2
46%
20:00
29°
Voelt als: 28.6°
1015.5 hPa 0.6 mm 13.7°
1
39%
 07:15     20:36    Daglengte: 13:21 Zondag 28 Aug
02:00
21°
1017.6 hPa 0.7 mm 14.7°
2
50%
08:00
19°
1017.6 hPa 0.5 mm 15.4°
1
55%
14:00
30°
Voelt als: 29.8°
1016.1 hPa 0.2 mm 14.0°
2
39%
20:00
28°
Voelt als: 28.2°
1015.4 hPa 0.4 mm 14.3°
1
40%
 07:16     20:34    Daglengte: 13:18 Maandag 29 Aug
02:00
20°
1017.6 hPa 1.5 mm 14.6°
2
42%
08:00
18°
1017.6 hPa 0.4 mm 14.8°
1
44%
14:00
30°
Voelt als: 29.9°
1016.4 hPa 0.4 mm 14.4°
2
38%
  CAPE Lifted Index Hail Supercell Tornado SRH 3km CL BTM PRES CL TOP PRES Swiss DWD icon SMHI TS
 06:59     20:59    Daglengte: 14:00 Vandaag
15:00 760 J/kg -3.7 K 0 % 0 % 0 % 0 m²/s² 0 0 -0.25 2
16:00 680 J/kg -3.3 K 0 % 0 % 0 % 0 m²/s² 0 0 0.36 80
17:00 558 J/kg -3.0 K 0 % 0 % 0 % 0 m²/s² 0 0 0.48 80
18:00 628 J/kg -3.4 K 0 % 0 % 0 % 0 m²/s² 0 0 0.08 3
19:00 518 J/kg -3.1 K 0 % 0 % 0 % 0 m²/s² 0 0 0.68 3
20:00 476 J/kg -2.8 K 0 % 0 % 0 % 0 m²/s² 0 0 1.07 3
21:00 455 J/kg -2.7 K 0 % 0 % 0 % 0 m²/s² 0 0 1.59 2
22:00 362 J/kg -2.7 K 0 % 0 % 0 % 0 m²/s² 0 0 2.28 3
23:00 106 J/kg -2.1 K 0 % 0 % 0 % 0 m²/s² 0 0 2.61 3
 07:00     20:57    Daglengte: 13:57 Morgen
00:00 0 J/kg -1.3 K 0 % 0 % 0 % 0 m²/s² 0 0 3.29 1
01:00 0 J/kg -0.1 K 0 % 0 % 0 % 0 m²/s² 0 0 3.86 2
02:00 0 J/kg 0.6 K 0 % 0 % 0 % 0 m²/s² 0 0 3.81 1
03:00 0 J/kg 1.6 K 0 % 0 % 0 % 0 m²/s² 0 0 4.63 1
04:00 0 J/kg 2.0 K 0 % 0 % 0 % 0 m²/s² 0 0 4.94 2
05:00 0 J/kg 2.2 K 0 % 0 % 0 % 0 m²/s² 0 0 5.14 2
06:00 0 J/kg 2.3 K 0 % 0 % 0 % 0 m²/s² 0 0 5.33 2
07:00 0 J/kg 2.1 K 0 % 0 % 0 % 0 m²/s² 0 0 5.67 2
08:00 0 J/kg 1.7 K 0 % 0 % 0 % 0 m²/s² 0 0 5.36 2
09:00 0 J/kg 1.9 K 0 % 0 % 0 % 0 m²/s² 0 0 5.29 2
10:00 1 J/kg 2.4 K 0 % 0 % 0 % 0 m²/s² 0 0 7.02 1
11:00 1 J/kg 1.8 K 0 % 0 % 0 % 0 m²/s² 0 0 8.34 2
12:00 5 J/kg 1.5 K 0 % 0 % 0 % 0 m²/s² 0 0 9.18 2
13:00 0 J/kg 1.7 K 0 % 0 % 0 % 0 m²/s² 0 0 9.11 3
14:00 0 J/kg 2.3 K 0 % 0 % 0 % 0 m²/s² 0 0 9.47 3
15:00 0 J/kg 2.0 K 0 % 0 % 0 % 0 m²/s² 0 0 9.44 1
16:00 0 J/kg 2.2 K 0 % 0 % 0 % 0 m²/s² 0 0 9.61 2
17:00 0 J/kg 2.5 K 0 % 0 % 0 % 0 m²/s² 0 0 9.91 2
18:00 0 J/kg 1.4 K 0 % 0 % 0 % 0 m²/s² 0 0 9.11 1
19:00 0 J/kg 1.8 K 0 % 0 % 0 % 0 m²/s² 0 0 8.58 1
20:00 0 J/kg 1.8 K 0 % 0 % 0 % 0 m²/s² 0 0 8.19 2
21:00 0 J/kg 1.8 K 0 % 0 % 0 % 0 m²/s² 0 0 8.19 2
22:00 0 J/kg 2.3 K 0 % 0 % 0 % 0 m²/s² 0 0 8.18 1
23:00 0 J/kg 2.3 K 0 % 0 % 0 % 0 m²/s² 0 0 7.61 1
 07:01     20:56    Daglengte: 13:55 Dinsdag 16 Aug
00:00 0 J/kg 2.4 K 0 % 0 % 0 % 0 m²/s² 0 0 7.05 0
01:00 0 J/kg 2.1 K 0 % 0 % 0 % 0 m²/s² 0 0 5.97 1
02:00 0 J/kg 2.1 K 0 % 0 % 0 % 0 m²/s² 0 0 5.07 1
03:00 0 J/kg 2.0 K 0 % 0 % 0 % 0 m²/s² 0 0 3.92 1
04:00 0 J/kg 1.4 K 0 % 0 % 0 % 0 m²/s² 0 0 2.48 2
05:00 0 J/kg 1.1 K 0 % 0 % 0 % 0 m²/s² 0 0 1.88 1
06:00 0 J/kg 0.8 K 0 % 0 % 0 % 0 m²/s² 0 0 1.61 2
07:00 0 J/kg 0.6 K 0 % 0 % 0 % 0 m²/s² 0 0 1.41 2
08:00 0 J/kg 0.4 K 0 % 0 % 0 % 0 m²/s² 0 0 1.18 1
09:00 0 J/kg -0.1 K 0 % 0 % 0 % 0 m²/s² 0 0 0.62 2
10:00 0 J/kg -0.3 K 0 % 0 % 0 % 0 m²/s² 0 0 0.81 3
11:00 25 J/kg -1.1 K 0 % 0 % 0 % 0 m²/s² 0 0 -0.29 2
12:00 249 J/kg -2.2 K 0 % 0 % 0 % 0 m²/s² 0 0 -1.48 2
13:00 339 J/kg -2.5 K 0 % 0 % 0 % 0 m²/s² 0 0 -0.88 0
14:00 399 J/kg -2.4 K 0 % 0 % 0 % 0 m²/s² 0 0 -1.02 1
15:00 565 J/kg -3.0 K 0 % 0 % 0 % 0 m²/s² 0 0 -2.88 3
16:00 673 J/kg -3.5 K 0 % 0 % 0 % 0 m²/s² 0 0 -2.54 3
17:00 669 J/kg -3.1 K 0 % 0 % 0 % 0 m²/s² 0 0 -2.23 3
18:00 577 J/kg -2.6 K 0 % 0 % 0 % 0 m²/s² 0 0 -1.82 80
19:00 594 J/kg -2.8 K 0 % 0 % 0 % 0 m²/s² 0 0 -2.26 80
20:00 651 J/kg -3.0 K 0 % 0 % 0 % 0 m²/s² 0 0 -2.37 2
21:00 1011 J/kg -4.3 K 0 % 0 % 0 % 0 m²/s² 0 0 -3.64 2
22:00 857 J/kg -4.4 K 0 % 0 % 0 % 0 m²/s² 0 0 -3.92 3
23:00 784 J/kg -3.2 K 0 % 0 % 0 % 0 m²/s² 0 0 -3.2 3
 07:03     20:54    Daglengte: 13:51 Woensdag 17 Aug
00:00 1022 J/kg -3.8 K 0 % 0 % 0 % 0 m²/s² 0 0 -2.48 3
01:00 950 J/kg -3.6 K 0 % 0 % 0 % 0 m²/s² 0 0 -2.43 2
02:00 329 J/kg -1.5 K 0 % 0 % 0 % 0 m²/s² 0 0 -0.87 2
03:00 0 J/kg -0.9 K 0 % 0 % 0 % 0 m²/s² 0 0 0.06 1
04:00 0 J/kg -1.0 K 0 % 0 % 0 % 0 m²/s² 0 0 0.11 3
05:00 0 J/kg -1.3 K 0 % 0 % 0 % 0 m²/s² 0 0 0.53 3
06:00 0 J/kg -1.2 K 0 % 0 % 0 % 0 m²/s² 0 0 0.75 3
07:00 0 J/kg -0.1 K 0 % 0 % 0 % 0 m²/s² 0 0 1.91 3
08:00 0 J/kg 0.5 K 0 % 0 % 0 % 0 m²/s² 0 0 2.45 3
09:00 0 J/kg 0.1 K 0 % 0 % 0 % 0 m²/s² 0 0 3.01 3
10:00 0 J/kg 0.6 K 0 % 0 % 0 % 0 m²/s² 0 0 4.11 3
11:00 0 J/kg 0.4 K 0 % 0 % 0 % 0 m²/s² 0 0 4.21 3
12:00 42 J/kg -0.4 K 0 % 0 % 0 % 0 m²/s² 0 0 3.41 3
13:00 127 J/kg -0.8 K 0 % 0 % 0 % 0 m²/s² 0 0 2.44 3
14:00 366 J/kg -1.8 K 0 % 0 % 0 % 0 m²/s² 0 0 0.72 3
Temp Baro Wind Neerslag
  EWN Forecast EWN WRFDA DWD ICON FMI HIRLAM MET Norway GFS
 06:59     20:59    Daglengte: 14:00 Vandaag
17:00 25.2° 1010.3 hPa 3.8 m/s 0.0 mm 30.4° 1007.5 hPa 6.2 m/s 0.3 mm 24.4° 1010.9 hPa 3.0 m/s 0.6 mm 22.4° 1010.8 hPa 3.4 m/s 0.0 mm 30.6° 1008.5 hPa 5.3 m/s
20:00 24.5° 1010.2 hPa 3.6 m/s 0.0 mm 27.8° 1007.8 hPa 6.5 m/s 0.3 mm 24.4° 1010.4 hPa 3.1 m/s 0.1 mm 21.5° 1011.2 hPa 3.8 m/s 0.0 mm 27.4° 1008.8 hPa 5.4 m/s
23:00 21.3° 1011.3 hPa 2.1 m/s 0.0 mm 22.4° 1009.9 hPa 4.1 m/s 0.3 mm 21.3° 1011.2 hPa 1.7 m/s 0.0 mm 19.7° 1012.0 hPa 2.5 m/s 0.0 mm 21.7° 1011.2 hPa 3.7 m/s
 07:00     20:57    Daglengte: 13:57 Morgen
02:00 19.9° 1011.3 hPa 1.2 m/s 0.0 mm 18.8° 1010.0 hPa 3.3 m/s 0.3 mm 20.1° 1011.5 hPa 1.1 m/s 0.0 mm 17.6° 1011.4 hPa 1.3 m/s 0.0 mm 18.9° 1011.2 hPa 2.6 m/s
05:00 19.1° 1010.9 hPa 2.2 m/s 0.0 mm 16.2° 1009.5 hPa 2.2 m/s 0.3 mm 19.4° 1011.1 hPa 1.5 m/s 0.0 mm 17.8° 1011.1 hPa 2.2 m/s 0.0 mm 16.9° 1010.9 hPa 3.0 m/s
08:00 18.6° 1011.0 hPa 1.6 m/s 0.0 mm 16.5° 1009.6 hPa 1.9 m/s 0.3 mm 18.8° 1011.2 hPa 1.3 m/s 0.0 mm 17.2° 1011.1 hPa 1.6 m/s 0.0 mm 16.9° 1012.0 hPa 1.6 m/s
11:00 21.6° 1011.2 hPa 2.3 m/s 0.0 mm 22.6° 1009.2 hPa 3.8 m/s 0.3 mm 22.7° 1011.4 hPa 2.2 m/s 0.0 mm 20.5° 1011.2 hPa 2.5 m/s 0.0 mm 23.2° 1011.4 hPa 3.4 m/s
14:00 25.8° 1010.2 hPa 2.9 m/s 0.0 mm 27.3° 1008.0 hPa 4.3 m/s 0.3 mm 26.5° 1010.1 hPa 3.6 m/s 0.0 mm 24.2° 1010.6 hPa 2.6 m/s 0.0 mm 28.2° 1009.4 hPa 5.1 m/s
17:00 28.5° 1008.6 hPa 3.3 m/s 0.0 mm 29.2° 1006.6 hPa 5.0 m/s 0.3 mm 28.8° 1008.3 hPa 3.5 m/s 0.0 mm 26.2° 1009.0 hPa 2.7 m/s 0.0 mm 29.6° 1007.9 hPa 4.2 m/s
20:00 27.2° 1008.3 hPa 3.0 m/s 0.0 mm 27.3° 1006.7 hPa 5.1 m/s 0.3 mm 27.6° 1007.8 hPa 2.1 m/s 0.0 mm 24.5° 1008.6 hPa 2.7 m/s 0.0 mm 28.3° 1007.3 hPa 3.4 m/s
23:00 23.2° 1009.7 hPa 2.3 m/s 0.0 mm 21.9° 1008.3 hPa 3.4 m/s 0.3 mm 23.6° 1009.1 hPa 0.6 m/s 0.0 mm 21.4° 1010.0 hPa 2.3 m/s 0.0 mm 22.5° 1008.8 hPa 2.6 m/s
 07:01     20:56    Daglengte: 13:55 Dinsdag 16 Aug
02:00 20.6° 1009.0 hPa 1.4 m/s 0.0 mm 18.5° 1008.7 hPa 1.5 m/s 0.3 mm 20.9° 1008.2 hPa 1.0 m/s 0.0 mm 19.0° 1009.1 hPa 1.8 m/s 0.0 mm 19.8° 1008.6 hPa 0.4 m/s
05:00 19.0° 1007.6 hPa 1.4 m/s 0.0 mm 17.6° 1007.8 hPa 0.6 m/s 0.3 mm 19.1° 1007.0 hPa 1.2 m/s 0.0 mm 17.2° 1007.9 hPa 1.6 m/s 0.0 mm 18.6° 1007.4 hPa 0.5 m/s
08:00 19.5° 1006.7 hPa 2.0 m/s 0.0 mm 18.2° 1006.5 hPa 2.4 m/s 0.3 mm 20.0° 1005.8 hPa 1.8 m/s 0.0 mm 17.0° 1006.9 hPa 2.2 m/s 0.0 mm 19.0° 1006.9 hPa 0.8 m/s
11:00 27.2° 1005.9 hPa 3.5 m/s 0.0 mm 26.6° 1005.7 hPa 1.1 m/s 0.3 mm 27.1° 1005.9 hPa 3.3 m/s 0.0 mm 26.1° 1007.3 hPa 1.0 m/s
14:00 31.4° 1005.4 hPa 2.4 m/s 0.0 mm 31.0° 1004.8 hPa 2.4 m/s 0.4 mm 30.9° 1005.5 hPa 2.3 m/s 0.0 mm 29.5° 1006.6 hPa 4.5 m/s
17:00 28.8° 1006.1 hPa 4.2 m/s 1.9 mm 26.4° 1006.1 hPa 7.0 m/s 4.2 mm 28.4° 1006.2 hPa 3.5 m/s 0.8 mm 30.8° 1005.5 hPa 5.1 m/s
20:00 23.3° 1008.1 hPa 3.7 m/s 3.9 mm 23.6° 1007.9 hPa 2.9 m/s 6.7 mm 24.3° 1007.8 hPa 3.6 m/s 0.7 mm 25.4° 1006.6 hPa 7.3 m/s
23:00 20.2° 1010.6 hPa 3.2 m/s 3.6 mm 20.1° 1010.4 hPa 3.3 m/s 12.3 mm 20.9° 1009.8 hPa 2.1 m/s 0.0 mm 18.1° 1011.0 hPa 3.6 m/s
 07:03     20:54    Daglengte: 13:51 Woensdag 17 Aug
02:00 19.6° 1010.6 hPa 2.8 m/s 18.7 mm 20.0° 1010.2 hPa 3.4 m/s 50.2 mm 19.6° 1010.3 hPa 2.5 m/s 0.0 mm 16.7° 1011.6 hPa 3.2 m/s
05:00 18.5° 1009.9 hPa 1.7 m/s 5.9 mm 17.0° 1009.5 hPa 2.4 m/s 50.5 mm 18.6° 1009.6 hPa 1.5 m/s 0.0 mm 15.7° 1011.0 hPa 1.9 m/s
08:00 18.2° 1010.1 hPa 1.9 m/s 0.0 mm 17.0° 1010.0 hPa 2.1 m/s 50.5 mm 18.4° 1010.2 hPa 1.8 m/s 0.1 mm 16.5° 1012.0 hPa 1.6 m/s
11:00 21.7° 1009.9 hPa 0.9 m/s 0.0 mm 21.8° 1010.0 hPa 2.9 m/s 50.5 mm 21.7° 1009.9 hPa 0.4 m/s 0.0 mm 19.0° 1012.8 hPa 1.5 m/s
14:00 24.8° 1010.0 hPa 3.9 m/s 17.0 mm 26.2° 1009.1 hPa 3.4 m/s 50.5 mm 24.4° 1010.2 hPa 4.0 m/s 0.2 mm 22.1° 1012.6 hPa 3.0 m/s
17:00 26.6° 1011.1 hPa 3.0 m/s 9.4 mm 26.6° 1011.1 hPa 3.0 m/s 9.4 mm
20:00 21.0° 1012.8 hPa 5.2 m/s 10.0 mm 21.0° 1012.8 hPa 5.2 m/s 10.0 mm
23:00 19.8° 1014.2 hPa 5.3 m/s 10.2 mm 19.8° 1014.2 hPa 5.3 m/s 10.2 mm
 07:04     20:53    Daglengte: 13:49 Donderdag 18 Aug
02:00 17.4° 1015.6 hPa 3.9 m/s 10.2 mm 17.4° 1015.6 hPa 3.9 m/s 10.2 mm
05:00 16.4° 1014.8 hPa 3.0 m/s 10.2 mm 16.4° 1014.8 hPa 3.0 m/s 10.2 mm
08:00 16.2° 1015.3 hPa 3.1 m/s 10.2 mm 16.2° 1015.3 hPa 3.1 m/s 10.2 mm
11:00 21.5° 1015.2 hPa 5.1 m/s 10.3 mm 21.5° 1015.2 hPa 5.1 m/s 10.3 mm
14:00 22.4° 1015.0 hPa 5.8 m/s 11.4 mm 22.4° 1015.0 hPa 5.8 m/s 11.4 mm
17:00 21.2° 1015.5 hPa 6.8 m/s 13.2 mm 21.2° 1015.5 hPa 6.8 m/s 13.2 mm
20:00 19.1° 1015.5 hPa 5.5 m/s 14.5 mm 19.1° 1015.5 hPa 5.5 m/s 14.5 mm
23:00 17.5° 1017.3 hPa 5.2 m/s 15.9 mm 17.5° 1017.3 hPa 5.2 m/s 15.9 mm
 07:05     20:51    Daglengte: 13:46 Vrijdag 19 Aug
02:00 16.3° 1019.1 hPa 5.6 m/s 17.7 mm 16.3° 1019.1 hPa 5.6 m/s 17.7 mm
05:00 15.9° 1018.9 hPa 5.4 m/s 18.0 mm 15.9° 1018.9 hPa 5.4 m/s 18.0 mm
08:00 16.5° 1019.9 hPa 5.2 m/s 18.4 mm 16.5° 1019.9 hPa 5.2 m/s 18.4 mm
11:00 21.0° 1020.8 hPa 6.1 m/s 18.6 mm 21.0° 1020.8 hPa 6.1 m/s 18.6 mm
14:00 26.1° 1019.7 hPa 6.1 m/s 18.8 mm 26.1° 1019.7 hPa 6.1 m/s 18.8 mm
17:00 27.2° 1019.0 hPa 7.1 m/s 18.8 mm 27.2° 1019.0 hPa 7.1 m/s 18.8 mm
20:00 24.3° 1019.8 hPa 4.2 m/s 18.8 mm 24.3° 1019.8 hPa 4.2 m/s 18.8 mm
23:00 22.5° 1021.5 hPa 6.0 m/s 18.8 mm 22.5° 1021.5 hPa 6.0 m/s 18.8 mm
 07:06     20:49    Daglengte: 13:43 Zaterdag 20 Aug
02:00 20.0° 1022.4 hPa 4.7 m/s 18.8 mm 20.0° 1022.4 hPa 4.7 m/s 18.8 mm
05:00 16.6° 1022.8 hPa 4.3 m/s 18.8 mm 16.6° 1022.8 hPa 4.3 m/s 18.8 mm
08:00 16.4° 1023.3 hPa 3.7 m/s 18.8 mm 16.4° 1023.3 hPa 3.7 m/s 18.8 mm
11:00 22.6° 1023.3 hPa 4.0 m/s 18.8 mm 22.6° 1023.3 hPa 4.0 m/s 18.8 mm
14:00 28.0° 1021.9 hPa 4.0 m/s 18.8 mm 28.0° 1021.9 hPa 4.0 m/s 18.8 mm
17:00 30.3° 1019.9 hPa 3.4 m/s 18.8 mm 30.3° 1019.9 hPa 3.4 m/s 18.8 mm
20:00 28.2° 1019.5 hPa 3.4 m/s 18.8 mm 28.2° 1019.5 hPa 3.4 m/s 18.8 mm
23:00 22.9° 1020.8 hPa 3.8 m/s 18.8 mm 22.9° 1020.8 hPa 3.8 m/s 18.8 mm
 07:07     20:48    Daglengte: 13:41 Zondag 21 Aug
02:00 20.3° 1021.0 hPa 2.2 m/s 18.8 mm 20.3° 1021.0 hPa 2.2 m/s 18.8 mm
05:00 18.5° 1021.0 hPa 1.6 m/s 18.8 mm 18.5° 1021.0 hPa 1.6 m/s 18.8 mm
08:00 18.5° 1021.3 hPa 1.7 m/s 18.8 mm 18.5° 1021.3 hPa 1.7 m/s 18.8 mm
11:00 25.4° 1020.7 hPa 2.2 m/s 18.8 mm 25.4° 1020.7 hPa 2.2 m/s 18.8 mm
14:00 30.2° 1018.6 hPa 3.4 m/s 18.8 mm 30.2° 1018.6 hPa 3.4 m/s 18.8 mm
20:00 29.3° 1015.2 hPa 2.3 m/s 18.8 mm 29.3° 1015.2 hPa 2.3 m/s 18.8 mm
 07:08     20:46    Daglengte: 13:38 Maandag 22 Aug
02:00 20.4° 1015.7 hPa 1.5 m/s 18.8 mm 20.4° 1015.7 hPa 1.5 m/s 18.8 mm
08:00 18.5° 1015.6 hPa 2.3 m/s 18.8 mm 18.5° 1015.6 hPa 2.3 m/s 18.8 mm
14:00 30.9° 1013.7 hPa 4.5 m/s 18.8 mm 30.9° 1013.7 hPa 4.5 m/s 18.8 mm
20:00 29.1° 1011.3 hPa 4.4 m/s 18.8 mm 29.1° 1011.3 hPa 4.4 m/s 18.8 mm
 07:09     20:45    Daglengte: 13:36 Dinsdag 23 Aug
02:00 19.6° 1013.0 hPa 5.0 m/s 18.8 mm 19.6° 1013.0 hPa 5.0 m/s 18.8 mm
08:00 17.0° 1014.1 hPa 3.2 m/s 18.8 mm 17.0° 1014.1 hPa 3.2 m/s 18.8 mm
14:00 29.1° 1012.3 hPa 3.7 m/s 18.8 mm 29.1° 1012.3 hPa 3.7 m/s 18.8 mm
20:00 27.8° 1011.0 hPa 3.3 m/s 18.8 mm 27.8° 1011.0 hPa 3.3 m/s 18.8 mm
 07:10     20:43    Daglengte: 13:33 Woensdag 24 Aug
02:00 20.3° 1013.5 hPa 2.8 m/s 18.8 mm 20.3° 1013.5 hPa 2.8 m/s 18.8 mm
08:00 18.7° 1016.8 hPa 1.1 m/s 0.1 mm
14:00 31.9° 1015.3 hPa 1.1 m/s 0.1 mm
20:00 30.1° 1014.6 hPa 0.7 m/s 0.4 mm
 07:12     20:41    Daglengte: 13:29 Donderdag 25 Aug
02:00 20.8° 1017.0 hPa 1.4 m/s 0.8 mm
08:00 18.7° 1017.4 hPa 1.1 m/s 0.3 mm
14:00 31.9° 1016.1 hPa 1.3 m/s 0.1 mm
20:00 30.7° 1015.2 hPa 0.8 m/s 0.0 mm
 07:13     20:40    Daglengte: 13:27 Vrijdag 26 Aug
02:00 21.2° 1017.8 hPa 1.9 m/s 0.2 mm
08:00 18.9° 1018.2 hPa 1.2 m/s 0.0 mm
14:00 32.2° 1016.8 hPa 1.5 m/s 0.0 mm
20:00 30.4° 1015.8 hPa 1.0 m/s 0.0 mm
 07:14     20:38    Daglengte: 13:24 Zaterdag 27 Aug
02:00 21.2° 1018.4 hPa 2.6 m/s 0.6 mm
08:00 18.7° 1018.6 hPa 1.8 m/s 0.2 mm
14:00 30.7° 1016.9 hPa 1.8 m/s 0.1 mm
20:00 29.1° 1015.5 hPa 1.4 m/s 0.6 mm
 07:15     20:36    Daglengte: 13:21 Zondag 28 Aug
02:00 20.9° 1017.6 hPa 1.9 m/s 0.7 mm
08:00 18.7° 1017.6 hPa 1.2 m/s 0.5 mm
14:00 30.4° 1016.1 hPa 1.9 m/s 0.2 mm
20:00 28.4° 1015.4 hPa 1.3 m/s 0.4 mm
 07:16     20:34    Daglengte: 13:18 Maandag 29 Aug
02:00 20.4° 1017.6 hPa 1.9 m/s 1.5 mm
08:00 18.4° 1017.6 hPa 1.4 m/s 0.4 mm
14:00 30.4° 1016.4 hPa 1.7 m/s 0.4 mm
FMI Hirlam - 7.5 km EWN WRFDA - 12 km DWD ICON - 7 km GFS - 25 km Basiskaart






























































Updatetijd (Europe/Brussels) Resolutie Lengte Stap
FMI Hirlam 14:15, 20:15, 02:15, 08:15 7.5 km 49h 1h
EWN WRFDA 10:15, 16:15, 22:15, 04:15 12 km 73h 1h
DWD ICON 11:45, 17:45, 23:45, 05:45 7 km 75h 1h
GFS 14:15, 20:15, 02:15, 08:15 25 km 237h 3h
30+ mm
25-30 mm
20-25 mm
15-20 mm
10-15 mm
6-10 mm
4-6 mm
2-4 mm
1-2 mm
0.5-1 mm
0.2-0.5 mm
0.1-0.2 mm
30+ mm
25-30 mm
20-25 mm
15-20 mm
10-15 mm
6-10 mm
4-6 mm
2-4 mm
1-2 mm
0.5-1 mm
0.2-0.5 mm
0.1-0.2 mm
Sneeuwval
Natte sneeuw
Hagel
Vorst
30+ mm
25-30 mm
20-25 mm
15-20 mm
10-15 mm
6-10 mm
4-6 mm
2-4 mm
1-2 mm
0.5-1 mm
0.2-0.5 mm
0.1-0.2 mm
Sneeuwval
Natte sneeuw
Hagel
Vorst
Onweer
50 mm
40 mm
30 mm
26 mm
22 mm
18 mm
14 mm
10 mm
9 mm
8 mm
7 mm
6 mm
5 mm
4.5 mm
4 mm
3.5 mm
3 mm
2.5 mm
2 mm
1.5 mm
1 mm
0.8 mm
0.6 mm
0.4 mm
0.2 mm
0.05 mm
35°
30°
25°
20°
15°
10°
-5°
-10°
-15°
-20°
-25°
-30°
-35°
33> m/s
29 m/s
25 m/s
21 m/s
17 m/s
14 m/s
11 m/s
8 m/s
5 m/s
3 m/s
0 m/s
2600 J/kg
2400 J/kg
2200 J/kg
2000 J/kg
1800 J/kg
1600 J/kg
1400 J/kg
1200 J/kg
1000 J/kg
800 J/kg
600 J/kg
400 J/kg
200 J/kg
70 dBZ
65 dBZ
60 dBZ
55 dBZ
50 dBZ
45 dBZ
40 dBZ
35 dBZ
30 dBZ
25 dBZ
20 dBZ
15 dBZ
10 dBZ
5 dBZ
-1 K
-2 K
-3 K
-4 K
-5 K
-6 K
-7 K
-8 K
-9 K
950 m²/s²
900 m²/s²
850 m²/s²
800 m²/s²
750 m²/s²
700 m²/s²
650 m²/s²
600 m²/s²
550 m²/s²
500 m²/s²
450 m²/s²
400 m²/s²
350 m²/s²
300 m²/s²
250 m²/s²
200 m²/s²
150 m²/s²
100 m²/s²
46 m/s
44 m/s
42 m/s
40 m/s
38 m/s
36 m/s
34 m/s
32 m/s
30 m/s
28 m/s
26 m/s
24 m/s
22 m/s
20 m/s
16 m/s
12 m/s
8 m/s
4 m/s
30 m/s
28 m/s
26 m/s
24 m/s
22 m/s
20 m/s
18 m/s
16 m/s
14 m/s
12 m/s
10 m/s
8 m/s
6 m/s
4 m/s
2 m/s
3.0
2.8
2.6
2.4
2.2
2.0
1.8
1.6
1.4
1.2
1.0
0.8
0.6
0.4
0.2
15
14
13
12
11
10
9
8
7
6
5
4
3
2
1
90%
80%
70%
60%
50%
40%
30%
20%
10%
42
40
38
36
34
32
30
28
26
24
22
20
18
16
14
12
90+ cm
80-90 cm
70-80 cm
60-70 cm
50-60 cm
40-50 cm
30-40 cm
20-30 cm
10-20 cm
1-10 cm
Sneeuwval
Natte sneeuw
Regen
>120 mm
115 mm
110 mm
105 mm
100 mm
95 mm
90 mm
85 mm
80 mm
75 mm
70 mm
65 mm
60 mm
55 mm
50 mm
45 mm
45 mm
40 mm
35 mm
30 mm
25 mm
20 mm
15 mm
10 mm
5 mm
0.1 mm
960 hPa
880 hPa
800 hPa
720 hPa
640 hPa
560 hPa
584 gpdm
568 gpdm
552 gpdm
536 gpdm
520 gpdm
504 gpdm
488 gpdm
Extreem zwaar Noodweer Kans op onweer
15% 15% 5% 50% 15%

Dag




Kaart






35°
30°
25°
20°
15°
10°
-5°
-10°
-15°
-20°
-25°
-30°
-35°
33> m/s
29 m/s
25 m/s
21 m/s
17 m/s
14 m/s
11 m/s
8 m/s
5 m/s
3 m/s
0 m/s
Extreem zwaar Noodweer Kans op onweer
15% 15% 5% 50% 15%
>120 mm
115 mm
110 mm
105 mm
100 mm
95 mm
90 mm
85 mm
80 mm
75 mm
70 mm
65 mm
60 mm
55 mm
50 mm
45 mm
45 mm
40 mm
35 mm
30 mm
25 mm
20 mm
15 mm
10 mm
5 mm
0.1 mm
Onweer risico kaarten - De groene en gele kleur geeft de kans op onweer aan binnen 40 km van een punt. Oranje, rood en violet hebben hetzelfde niveau z